Find Marecs 2

NORAD ID: 15386 Int'l Des: 1984-114 Owner: ESA Country: I-ESA operational
HEO

Aktuelle Ansicht

3D-Globus wird geladen...

About Marecs 2

Marecs 2 (NORAD 15386) is a satellite launched Nov 10, 1984 by ESA of I-ESA. It operates in HEO orbit with a mass of 580.00 kg.

Nächste Überflüge

Passes for default location (London). Set your location on the main map for personalized predictions.

Höhenverlauf

Loading altitude history...

Zweizeiliger Elementsatz

1 15386U 84114B 26194.96435502 -.00000135 00000-0 00000+0 0 9996
2 15386 13.4571 332.7520 0112217 56.2002 126.3758 0.95928861112933
Epoch: 13. Juli 2026 • Age: 14 hours

Aktueller Status

Höhe 36621.4 km
Apogäum / Perigäum N/A
Geschwindigkeit 3.06 km/s
Subsatellitenpunkt 6.25°N, 134.27°W
Startdatum 10. Nov. 1984
Alter 41.6 years
Typ other

Technische Details

Klassifizierung Payload
Masse 580.00 kg
Trockenmasse 470.00 kg
Gesamtmasse 1050.00 kg
Länge 2.50 m
Durchmesser 2.00 m
Spannweite 13.80 m
Form Box + 2 Pan
Hersteller BAES
Bus-Typ OTS
Phasenstatus In Orbit
Besitzer/Staat ESA/I-ESA

Most Searched